sat.trackr.live / text

‹ back to catalog

ELEVATION-1

NORAD 62677 · 2025-009BW

PAYLOAD ACTIVE UNKNOWN

§ Identity

Operator
Country
UK
Launch date
2025-01-14
Launch site
AFWTR
Launch vehicle
Mass (kg)
RCS (m²)

External: N2YO · Heavens-Above · Gunter

§ Orbital elements

Epoch: 2026-05-25T04:57:05.283360Z

Period
93.47 min
Inclination
97.3836°
Eccentricity
0.0003887
Mean motion
15.40629128 rev/d
Perigee alt
441.6 km
Apogee alt
446.9 km
Semi-major
6,822.4 km
B*
6.9817e-4
RAAN
230.1594°
Arg perigee
59.5526°
Mean anomaly
300.6104°
Rev number
13,328

§ Raw data

ELEVATION-11 62677U 25009BW  26145.20631115  .00028428  00000+0  69817-3 0  99982 62677  97.3836 230.1594 0003887  59.5526 300.6104 15.40629128133287

JSON: /api/v1/satellites/62677 · /tle

For live sub-satellite position, see the globe view (requires WebGL).

§ Visibility from observer

Set your observer location to see the next 7 days of passes ≥ 10°. The values pass through the URL so the page stays shareable.

No JS? Fill the form by hand. The geolocation button needs JavaScript.

§ Radio — SatNOGS DB

ModeDescriptionDownlinkUplink
FM Mode S - Transmitter 2.246 GHz
FSK Mode U - Transmitter 400.200 MHz

2 transmitters · refreshed weekly from db.satnogs.org